GFSNIL_con_3kmhel_165.txt.gz
Helicity
395 425 355 312 290 255 232 221 187 147 132 134 115 108 111 110 94 120 117 141 184 170
515 517 471 453 380 288 233 185 145 143 121 91 100 106 119 126 138 128 122 116 149 140
557 547 491 404 350 286 233 209 176 135 114 108 137 158 130 134 130 142 142 139 150 174
518 464 388 339 293 284 239 161 193 129 119 129 136 141 132 136 156 171 197 167 160 170
356 339 322 325 317 267 201 190 149 114 114 132 153 162 188 174 178 199 214 166 164 162
323 339 314 292 231 217 260 216 145 143 133 131 138 163 165 186 189 196 174 141 144 140
317 337 309 242 253 319 210 198 122 161 158 182 201 189 159 172 166 158 137 121 115 127
249 244 242 290 305 280 290 240 278 206 210 211 228 237 251 199 209 186 144 123 103 72
311 311 347 307 274 312 210 177 85 258 314 202 205 252 209 241 267 240 233 162 134 121
306 362 377 355 289 245 269 326 440 289 226 229 183 246 282 269 231 216 230 223 158 110
314 331 329 306 287 333 366 350 288 314 232 205 174 209 228 245 223 204 195 173 130 95
316 348 346 313 341 361 330 292 280 230 207 196 179 178 209 212 195 187 159 116 96 94
341 346 344 359 359 349 314 297 274 210 168 130 138 143 178 188 173 156 138 125 92 98
314 318 355 401 379 360 319 306 280 214 158 133 132 138 157 165 115 115 110 103 92 77

GFSNIL_con_3kmhel_168.txt.gz
Helicity
301 305 296 314 285 256 265 254 250 252 222 210 191 185 178 159 143 144 143 163 154 157
299 342 356 380 319 270 239 230 244 232 226 213 189 174 162 133 150 124 142 140 155 145
429 421 399 372 332 296 267 257 235 217 207 221 210 171 176 148 125 154 163 151 181 181
452 446 443 423 364 289 271 276 274 243 235 259 190 159 133 131 166 174 164 155 153 158
397 400 405 376 352 311 306 289 312 328 329 243 133 97 141 165 171 157 138 130 133 149
332 329 326 325 347 384 433 442 403 402 223 141 123 119 135 169 154 143 135 123 136 150
238 279 305 320 336 346 332 325 269 254 259 208 152 110 133 167 163 160 141 133 137 148
202 206 209 260 310 306 258 278 268 316 355 207 119 139 155 168 161 147 147 126 118 114
279 265 256 274 297 292 265 260 258 285 214 131 151 89 181 199 163 141 133 142 153 139
333 310 291 321 262 237 267 274 316 270 242 210 176 160 198 203 193 161 146 134 117 103
296 329 317 266 261 277 240 276 307 266 193 174 168 146 182 233 216 195 177 145 113 108
290 306 305 285 273 305 335 310 308 250 222 188 160 140 167 195 198 177 155 126 114 114
269 275 274 281 301 318 325 332 307 273 220 153 164 149 122 176 184 181 145 110 113 115
298 282 279 311 316 350 351 334 318 281 230 196 179 90 102 116 154 145 135 116 107 100

GFSNIL_con_3kmhel_171.txt.gz
Helicity
148 203 189 170 196 205 206 210 212 224 229 254 260 266 248 229 221 197 178 167 185 175
181 241 213 208 214 226 224 227 226 231 255 265 257 234 232 233 204 176 174 189 198 154
217 260 280 288 265 270 264 240 217 224 244 261 258 260 271 261 188 207 245 141 156 155
315 339 321 301 292 291 289 253 227 237 257 267 266 283 286 246 269 229 142 131 137 151
310 301 300 296 308 322 301 265 242 259 306 280 267 261 221 296 186 125 129 105 127 130
255 269 278 301 331 322 315 299 292 336 330 266 219 216 216 200 141 139 118 121 118 108
212 213 233 266 293 316 325 354 314 279 269 310 352 305 345 229 170 137 134 122 118 109
214 217 228 245 254 255 275 255 292 326 350 322 284 278 244 196 152 138 126 112 100 84
261 261 240 240 248 265 265 289 277 257 265 220 205 178 142 183 138 125 104 89 108 113
282 267 283 302 286 254 276 280 246 220 194 182 182 184 116 129 147 138 100 91 84 87
244 255 286 282 268 277 271 261 242 218 203 187 165 137 148 141 222 145 134 105 95 101
218 254 262 258 267 271 293 279 234 228 209 196 146 138 134 191 214 176 127 100 96 95
227 243 236 257 284 279 289 294 274 249 214 186 183 135 129 196 223 162 123 115 105 101
229 248 245 284 294 309 316 308 280 281 255 236 197 144 144 152 137 133 122 112 100 95

GFSNIL_con_3kmhel_174.txt.gz
Helicity
154 161 198 112 139 104 120 125 128 157 175 200 207 221 237 249 267 268 280 269 261 250
-1 -4 38 96 127 148 168 167 146 154 194 214 226 231 248 267 285 274 262 284 276 204
-4 40 76 134 155 177 210 224 208 212 211 223 230 219 209 210 227 269 277 225 231 264
45 127 182 198 185 216 240 231 205 188 182 188 221 254 230 239 229 252 241 245 263 326
90 132 192 214 213 226 241 206 189 188 210 194 198 241 290 295 250 214 227 244 348 181
158 187 205 208 209 227 250 248 241 246 218 218 243 273 303 259 204 205 210 299 203 139
127 145 166 177 196 206 203 230 253 246 233 239 257 303 261 250 244 226 200 253 156 103
168 186 202 208 203 200 206 234 261 261 247 248 230 234 264 244 232 239 285 294 140 105
239 227 192 169 183 237 267 258 246 216 230 220 195 166 153 196 214 226 250 162 144 124
255 226 225 265 283 253 252 251 231 224 197 195 170 142 175 212 251 248 254 159 131 106
258 230 220 230 232 242 244 239 241 231 222 203 174 151 177 176 190 182 176 171 123 84
239 192 165 160 194 215 226 238 236 229 223 209 177 146 170 209 206 191 177 155 137 99
191 194 193 206 231 236 230 232 244 239 216 190 189 171 155 191 204 189 142 150 107 60
165 197 226 245 243 256 266 270 268 263 228 221 231 194 155 155 149 166 151 123 81 61